ROMMA est une association bénévole à but non lucratif. Votre soutien est indispensable : ADHERER à ROMMA ou FAIRE un DON

Tourrette-Levens - (06, Alpes-Maritimes)

Côte-d'Azur (416 m)   Longitude: 07° 16' 12" E   Latitude: 43° 47' 24" N Station partenaire n°152
 

Détail journalier du     <<     >>

Température Precipitation Humidité Pression Vent Dir Rafale Dir. rafale Ensol.
Heure (°C) (mm) (%) (hPa) (km/h) (km/h) (min)
01:00 14.005510067NNE29NNE0
02:00 14.005410067N31N0
03:00 13.306010063NNE19ENE0
04:00 13.105910052E16SE0
05:00 12.306610051SE6SSE0
06:00 11.706910051OSO8N0
07:00 11.307310051S6SSO0
08:00 11.907110051SE5NNE0
09:00 12.907410061NE6SSE0
10:00 13.9062100603NNE0
11:00 13.406510062SSO10SSO0
12:00 14.006410073SSE11SSE0
13:00 14.606910073SSE13SSE0
14:00 15.807010063ESE10E0
15:00 15.607510064NNE15E0
16:00 14.508410064E15E0
17:00 13.608310073SE15SE0
18:00 13.008610072SE10ESE0
19:00 12.40.29010071ENE6ESE0
20:00 12.10.4931008000
21:00 11.6094100802N0
22:00 11.10.2941008000
23:00 11.10.2951008000
minuit 10.70.2951008000

Graphique du 18-05-2019

 

Serveur OMMA